Location: Saluda
(35.2377°N, 82.3468°W)
Time: 04:03:41
(UTC+00:00)

Vanguard 2 Rocket - Pass Details

Date: 04 October 2022
Orbit: 555 x 3321 km, 32.9° (Epoch: 04 December)

Event Time Altitude Azimuth Distance (km) Brightness Sun altitude
Rises 07:18:29 0° 275° (W) 5,585 - -48.5°
Reaches altitude 10° 07:22:53 10° 273° (W) 4,118 - -47.8°
Maximum altitude 07:32:43 67° 193° (SSW) 1,206 - -46.2°
Drops below altitude 10° 07:38:18 10° 112° (ESE) 2,403 - -45.3°
Sets 07:40:16 0° 109° (ESE) 3,145 - -45.0°
